Weather History for Austin Bergstrom, TX

Change the Weather History Date:

Monday, June 24, 2013

  Actual Average Record
Temperature  
Mean Temperature 88 °F 82 °F  
Max Temperature 100 °F 93 °F 104 °F (2009)
Min Temperature 75 °F 71 °F 65 °F (2002)
Degree Days  
Heating Degree Days 0 0  
Month to date heating degree days 0 0  
Since 1 June heating degree days 0 0  
Since 1 July heating degree days 1655 1903  
Cooling Degree Days 23 17  
Month to date cooling degree days 427 378  
Year to date cooling degree days 941 885  
Since 1 June cooling degree days 427 378  
Growing Degree Days 37 (Base 50)    
Moisture  
Dew Point 70 °F    
Average Humidity 64    
Maximum Humidity 94    
Minimum Humidity 33    
Precipitation  
Precipitation 0.00 in 0.15 in 3.49 in (1960)
Month to date precipitation 0.20 3.47  
Year to date precipitation 15.58 15.52  
Snow  
Snow 0.00 in - - ()
Month to date snowfall 0.0  
Since 1 June snowfall 0.0  
Since 1 July snowfall T  
Snow Depth 0.00 in    
Sea Level Pressure  
Sea Level Pressure 29.96 in    
Wind  
Wind Speed 13 mph (SSE)    
Max Wind Speed 25 mph    
Max Gust Speed 31 mph    
Visibility 9 miles    
Events      
T = Trace of Precipitation, MM = Missing Value Source: NWS Daily Summary

Daily Weather History Graph

Daily Weather History Graph

Search for Another Location

Airport:

Trip Planner

Search our weather history database for the weather conditions in past years. The results will help you decide how hot, cold, wet, or windy it might be!

Date:

Astronomy

Jun. 24, 2013 Rise Set
Actual Time 6:30 AM CDT 8:35 PM CDT
Civil Twilight 6:02 AM CDT 9:03 PM CDT
Nautical Twilight 5:29 AM CDT 9:36 PM CDT
Astronomical Twilight 4:53 AM CDT 10:12 PM CDT
Moon 9:48 PM CDT (6/24) 7:52 AM CDT (6/24)
Length of Visible Light 15h 00m
Length of Day
14h 05m
Full, 98% of the Moon is Illuminated
Jun 24
Full
Jun 29
Last Quarter
Jul 8
New
Jul 15
First Quarter
Jul 22
Full

Hourly Weather History & Observations

Time (CDT) Temp. Heat Index Dew Point Humidity Pressure Visibility Wind Dir Wind Speed Gust Speed Precip Events Conditions
12:53 AM 79.0 °F - 71.1 °F 77% 29.95 in 10.0 mi SSE 9.2 mph - N/A   Partly Cloudy
1:53 AM 78.1 °F - 72.0 °F 81% 29.96 in 10.0 mi SSE 9.2 mph - N/A   Mostly Cloudy
2:53 AM 77.0 °F - 73.0 °F 88% 29.96 in 10.0 mi South 5.8 mph - N/A   Mostly Cloudy
3:53 AM 77.0 °F - 73.0 °F 88% 29.96 in 10.0 mi SSE 9.2 mph - N/A   Mostly Cloudy
4:41 AM 75.2 °F - 73.4 °F 94% 30.00 in 10.0 mi South 6.9 mph - N/A   Scattered Clouds
4:53 AM 75.9 °F - 73.0 °F 91% 29.97 in 10.0 mi South 5.8 mph - N/A   Scattered Clouds
5:16 AM 75.2 °F - 73.4 °F 94% 30.01 in 10.0 mi South 5.8 mph - N/A   Mostly Cloudy
5:53 AM 75.9 °F - 73.9 °F 94% 29.97 in 10.0 mi SSE 5.8 mph - N/A   Mostly Cloudy
5:57 AM 75.2 °F - 73.4 °F 94% 30.00 in 10.0 mi SSE 5.8 mph - N/A   Mostly Cloudy
6:53 AM 77.0 °F - 73.9 °F 90% 29.98 in 7.0 mi South 6.9 mph - N/A   Mostly Cloudy
7:10 AM 77.0 °F - 73.4 °F 89% 30.02 in 6.0 mi South 10.4 mph - N/A   Overcast
7:53 AM 78.1 °F - 73.9 °F 87% 30.00 in 6.0 mi SSE 8.1 mph - N/A   Overcast
8:19 AM 78.8 °F - 73.4 °F 83% 30.04 in 7.0 mi SSE 8.1 mph - N/A   Overcast
8:53 AM 80.1 °F 84.5 °F 73.9 °F 81% 30.01 in 8.0 mi SSE 12.7 mph - N/A   Overcast
9:53 AM 86.0 °F 93.0 °F 73.0 °F 65% 30.00 in 10.0 mi South 13.8 mph - N/A   Mostly Cloudy
10:09 AM 84.2 °F 89.6 °F 71.6 °F 66% 30.04 in 10.0 mi South 18.4 mph 25.3 mph N/A   Scattered Clouds
10:53 AM 87.1 °F 92.8 °F 71.1 °F 59% 30.00 in 10.0 mi South 16.1 mph 23.0 mph N/A   Mostly Cloudy
11:53 AM 91.9 °F 97.4 °F 70.0 °F 48% 29.99 in 10.0 mi South 16.1 mph 23.0 mph N/A   Scattered Clouds
12:53 PM 93.0 °F 97.4 °F 68.0 °F 44% 29.97 in 10.0 mi SSE 17.3 mph 26.5 mph N/A   Mostly Cloudy
1:53 PM 95.0 °F 97.9 °F 66.0 °F 38% 29.94 in 10.0 mi SSE 17.3 mph 21.9 mph N/A   Scattered Clouds
2:53 PM 96.1 °F 98.8 °F 64.9 °F 36% 29.92 in 10.0 mi SSE 15.0 mph 21.9 mph N/A   Mostly Cloudy
3:53 PM 99.0 °F 101.7 °F 64.0 °F 32% 29.90 in 10.0 mi South 16.1 mph 21.9 mph N/A   Scattered Clouds
4:53 PM 99.0 °F 102.3 °F 64.9 °F 33% 29.88 in 10.0 mi SSE 16.1 mph 26.5 mph N/A   Scattered Clouds
5:53 PM 96.1 °F 98.3 °F 64.0 °F 35% 29.86 in 10.0 mi SSE 20.7 mph 27.6 mph N/A   Scattered Clouds
6:53 PM 96.1 °F 98.8 °F 64.9 °F 36% 29.86 in 10.0 mi SSE 18.4 mph 24.2 mph N/A   Scattered Clouds
7:53 PM 91.0 °F 93.0 °F 64.9 °F 42% 29.87 in 10.0 mi SSE 17.3 mph 23.0 mph N/A   Scattered Clouds
8:53 PM 88.0 °F 91.4 °F 68.0 °F 51% 29.89 in 10.0 mi SSE 15.0 mph - N/A   Mostly Cloudy
9:53 PM 86.0 °F 89.4 °F 68.0 °F 55% 29.91 in 10.0 mi SSE 13.8 mph - N/A   Partly Cloudy
10:53 PM 82.9 °F 85.8 °F 68.0 °F 60% 29.94 in 10.0 mi SSE 12.7 mph - N/A   Scattered Clouds
11:53 PM 82.0 °F 86.3 °F 71.1 °F 69% 29.96 in 10.0 mi SSE 13.8 mph 21.9 mph N/A   Scattered Clouds